Regional Weather Roundup
Issued by NWS

Home | Current Version | Previous Version | Graphics & Text | Print | Product List | Glossary On
Versions: 1 2 3 4 5 6 7 8 9 10 11 12 13 14 15 16 17 18 19 20 21 22 23 24 25 26 27 28
000
ASUS45 KTFX 290310
RWRMT
MONTANA REGIONAL WEATHER ROUNDUP
NATIONAL WEATHER SERVICE GREAT FALLS MT
900 PM MDT FRI APR 28 2017

NOTE: "FAIR" INDICATES FEW OR NO CLOUDS BELOW 12000 FEET WITH NO
SIGNIFICANT WEATHER AND/OR OBSTRUCTIONS TO VISIBILITY.

MTZ001>007-043-290400-
WEST OF THE DIVIDE

CITY           SKY/WX    TMP DP  RH WIND       PRES   REMARKS
KALISPELL      CLOUDY    42  41  96 S8        30.16R
MISSOULA       MOCLDY    46  33  60 W13       30.18R
BUTTE          CLOUDY    42  25  50 N5        30.12R
MULLAN PASS    CLOUDY    31  30  96 SW3       30.16R
ANACONDA         N/A     37  25  60 W5        30.13R
DEER LODGE       N/A     39  28  65 NW10      30.15R
EUREKA           N/A     45  41  87 CALM      30.15R
HAMILTON         N/A     46  27  46 CALM      30.16R
LIBBY            N/A     48  37  66 NW7       30.15R
$$

MTZ008-052>055-290400-
SOUTHWEST MONTANA

CITY           SKY/WX    TMP DP  RH WIND       PRES   REMARKS
BOZEMAN        CLOUDY    41  34  76 SW3       30.14R
DILLON         CLOUDY    39  26  59 NE6       30.09R
W YELLOWSTONE  CLOUDY    32  23  69 N7        30.09R WCI  26
THREE FORKS      N/A     41  19  41 CALM      30.12R
TWIN BRIDGES     N/A     41  23  48 N7        30.08R
$$

MTZ009-010-012-014-046-048-049-054-290400-
EAST SLOPES AND CENTRAL MONTANA

CITY           SKY/WX    TMP DP  RH WIND       PRES   REMARKS
CUT BANK       PTCLDY    42  28  57 SE6       30.12R
GREAT FALLS    CLEAR     35  32  88 S5        30.15R
MALMSTROM AFB  CLEAR     36  33  90 SW6       30.16R WCI  31
HELENA         CLEAR     41  34  76 W8        30.14R
AUGUSTA        MOCLDY    41  33  72 CALM      30.14R
BOWMANS CRNR     N/A     35  33  90 SW6       30.13R WCI  30
CHOTEAU          N/A     41  32  70 SE5       30.16R
FAIRFIELD        N/A     40  35  82 SE7       30.14R
POWER          MOCLDY    39  35  87 S5        30.14R
RAYNESFORD       N/A     38  33  84 CALM      30.15R
ULM              N/A     37  34  90 S8        30.15R WCI  30
$$

MTZ011-013-016-021-045-047-050-051-290400-
NORTH CENTRAL MONTANA

CITY           SKY/WX    TMP DP  RH WIND       PRES   REMARKS
HAVRE          CLOUDY    46  28  49 W3        30.15R
LEWISTOWN      PTCLDY    35  33  92 SW6       30.16R WCI  30
CHINOOK          N/A     45  34  65 CALM      30.15R
DENTON         MOCLDY    37  35  92 MISG      30.12R
FORT BENTON      N/A     46  34  61 MISG      30.17R
GEYSER           N/A     36  33  88 SW3       30.15R
GRASS RANGE    MOCLDY    40  36  83 SW5       30.13R
JUDITH GAP       N/A     35  33  92 NW9       30.15R WCI  27
STANFORD         N/A     37  33  85 CALM      30.15R
WINIFRED       MOCLDY    40  37  88 W6        30.15R
$$

MTZ017>020-022>027-061-062-290400-
NORTHEAST MONTANA

CITY           SKY/WX    TMP DP  RH WIND       PRES   REMARKS
GLASGOW        PTCLDY    45  34  65 NW9       30.13R
JORDAN           N/A     49  31  49 SW7       30.13R
SIDNEY         PTCLDY    41  25  53 CALM      30.14R
WOLF POINT     CLOUDY    50  22  33 SW3       30.11R
PLENTYWOOD       N/A     48  21  34 SE6       30.11R
POPLAR           N/A     50  21  32 S5        30.12R
SCOBEY           N/A     43  29  58 N3        30.11R
$$

MTZ028>42-056>058-290400-
SOUTHCENTRAL AND SOUTHEAST MONTANA

CITY           SKY/WX    TMP DP  RH WIND       PRES   REMARKS
BAKER          PTCLDY    41  27  57 SE6       30.15R
BILLINGS       CLOUDY    43  34  70 CALM      30.16R
LIVINGSTON     CLOUDY    37  33  85 NE8       30.13R WCI  31
MILES CITY     CLOUDY    48  25  40 W3        30.15R
BIG TIMBER     CLOUDY    37  36  93 SE10      30.18R WCI  30
EKALAKA          N/A     41  24  51 SE5       30.12R
LAUREL           N/A     40  25  55 CALM      30.13F
ROUNDUP          N/A     43  34  70 SW3       30.06R
$$

REGIONAL REPORTS...DAKOTAS

CITY           SKY/WX    TMP DP  RH WIND       PRES   REMARKS
WILLISTON      MOCLDY    51  21  30 S3        30.13R
MINOT          CLEAR     45  17  32 CALM      30.14R
DICKINSON      CLEAR     39  16  39 E7        30.14R
BEACH            N/A     37  23  56 SE8       30.17R WCI  31
TIOGA          CLOUDY    41  18  38 S8        30.15R
WATFORD CITY     N/A     43  23  45 CALM      30.14R
BISMARCK       CLEAR     49  18  29 NE5       30.16R
GRAND FORKS    CLEAR     38  29  70 N8        30.14R
FARGO          CLOUDY    40  27  59 N7        30.13R
BUFFALO SD       N/A     44  26  49 E8        30.10R
RAPID CITY     CLOUDY    36  28  73 NE6       30.15R WCI  31
$$

REGIONAL REPORTS...WYOMING/IDAHO/WASHINGTON

CITY           SKY/WX    TMP DP  RH WIND       PRES   REMARKS
GILLETTE       CLOUDY    35  28  75 W3        30.16R
SHERIDAN       CLOUDY    35  32  88 CALM      30.17R
BUFFALO WY     CLOUDY    33  22  63 SW7       30.17R WCI  27
CODY           CLOUDY    34  30  85 N3        30.15R
YELLOWSTONE LA   N/A     28  19  69 VRB5      30.09R
IDAHO FALLS    MOCLDY    44  28  53 N12       30.04R
SALMON         PTCLDY    45  25  45 NE3       30.11R
BOISE          CLEAR     52  29  41 NW20      30.10R
SPOKANE        MOCLDY    54  32  43 SW9       30.15R
$$

REGIONAL REPORTS...ALBERTA

CITY           SKY/WX    TMP DP  RH WIND       PRES   REMARKS
EDMONTON       CLEAR     39  30  70 E2        30.09R
CALGARY        MOCLDY    43  30  61 SW7       30.09R
LETHBRIDGE     MOCLDY    45  34  65 N5        30.11R
MEDICINE HAT   PTCLDY    43  27  52 NW3       30.12R
CARDSTON         N/A     37  36  93 SE3         N/A
MILK RIVER       N/A     41  34  75 SE3         N/A
ONEFOUR          N/A     41  28  60 NW2         N/A
$$

REGIONAL REPORTS...SASKATCHEWAN

CITY           SKY/WX    TMP DP  RH WIND       PRES   REMARKS
SWIFT CURRENT  MOCLDY    39  27  60 NW3       30.10R
REGINA         MOCLDY    43  34  70 NW8       30.12R
SASKATOON      PTCLDY    37  28  70 SW6       30.09R
VAL MARIE        N/A     41  34  75 NW6         N/A
ROCKGLEN         N/A     37  34  87 NW8         N/A  WCI  31
$$




USA.gov is the U.S. government's official web portal to all federal, state and local government web resources and services.